This is the latest recevied weather packets stored in our database for station/object W5COG. If no packets are shown the sender has not sent any weather packets the latest 10 day(s).
| Time | Temp. | Humidity | Pressure | Rain* | Wind** | Luminosity | Snow |
|---|---|---|---|---|---|---|---|
| 1777684227 | 15.56° C | 43% | 1017.4 hPa | 0 mm | - | 6 W/m² | - |
| 1777683927 | 15.56° C | 43% | 1017.4 hPa | 0 mm | - | 9 W/m² | - |
| 1777683027 | 16.11° C | 44% | 1017.2 hPa | 0 mm | - | 22 W/m² | - |
| 1777682727 | 16.11° C | 43% | 1017.2 hPa | 0 mm | - | 28 W/m² | - |
| 1777682427 | 16.67° C | 42% | 1017.1 hPa | 0 mm | - | 34 W/m² | - |
| 1777682127 | 16.67° C | 39% | 1017.1 hPa | 0 mm | - | 42 W/m² | - |
| 1777681827 | 16.67° C | 40% | 1016.9 hPa | 0 mm | - | 51 W/m² | - |
| 1777681527 | 16.67° C | 42% | 1016.9 hPa | 0 mm | - | 56 W/m² | - |
| 1777681227 | 16.67° C | 39% | 1016.9 hPa | 0 mm | - | 57 W/m² | - |
| 1777680927 | 17.22° C | 41% | 1016.8 hPa | 0 mm | - | 67 W/m² | - |
| 1777680627 | 17.22° C | 40% | 1016.8 hPa | 0 mm | - | 77 W/m² | - |
| 1777680327 | 17.22° C | 38% | 1016.8 hPa | 0 mm | - | 77 W/m² | - |
| 1777680027 | 17.22° C | 40% | 1016.8 hPa | 0 mm | - | 74 W/m² | - |
| 1777679727 | 17.78° C | 40% | 1016.8 hPa | 0 mm | - | 75 W/m² | - |
| 1777679427 | 17.78° C | 38% | 1016.8 hPa | 0 mm | - | 81 W/m² | - |
| 1777679127 | 17.78° C | 35% | 1016.8 hPa | 0 mm | - | 86 W/m² | - |
| 1777678827 | 17.78° C | 36% | 1016.8 hPa | 0 mm | - | 91 W/m² | - |
| 1777678527 | 18.33° C | 35% | 1016.7 hPa | 0 mm | - | 96 W/m² | - |
| 1777678227 | 18.33° C | 35% | 1016.6 hPa | 0 mm | - | 99 W/m² | - |
| 1777677927 | 18.33° C | 34% | 1016.6 hPa | 0 mm | - | 109 W/m² | - |
| 1777677627 | 18.33° C | 34% | 1016.6 hPa | 0 mm | - | 128 W/m² | - |
| 1777677327 | 18.33° C | 34% | 1016.5 hPa | 0 mm | - | 146 W/m² | - |
| 1777677027 | 18.89° C | 33% | 1016.6 hPa | 0 mm | - | 179 W/m² | - |
| 1777676727 | 18.33° C | 34% | 1016.5 hPa | 0 mm | - | 196 W/m² | - |
| 1777676427 | 18.33° C | 34% | 1016.5 hPa | 0 mm | - | 195 W/m² | - |
* Rain latest hour (hover to see other rain measurements)
** Current wind speed in m/s (hover to see current wind gust speed)